Résultats de la compétition "Moyenne Distance de Vieux Boucau" du 24-08-2010 organisée par le club 4012
     
  Télécharger le fichier CSV.  
     
     

 Circuit "G"

Licence Nom Prénom Temps CN
précédent
Score sur
la course
Différence
2349HELIOTClaude0:25:4133484553+1205
2401DEVILLENelly0:26:1544024455+53
16403EUZENJ-Paul0:28:2930994106+1007
1380DIEUDONNEMadeleine0:31:4740253680-345
6886FRANTZFrancoise0:32:0735163641+125
7574OUDINM-Reine0:32:2139203615-305
14245RICHARDNicole0:33:4131133472+359
6491ROBERTFrancoise0:34:0942643425-839
116PIGERAlbert0:34:49N/A3359N/A
12059GROSJEANA-Marie0:35:1223203322+1002
1106NATALIAnnie0:35:2828693297+428
6826DUVOUXFrance0:37:2527233126+403
1087ROBERTMartine0:38:2037323051-681
16634BAUDOINAnnie0:39:2122382972+734
1438BOUSQUETMichel0:39:3838322951-881
2888MOULIEREM-Bernadett0:40:0431522919-233
11071POINSENOTRoger0:40:2028762900+24
5033THIEBAULTMonique0:40:2541352894-1241
3302JEANPIERREM-Therese0:41:0931282842-286
4671POGUPaulette0:41:5327972792-5
4392DODINGenevieve0:42:4621242735+611
96CABONMonique0:43:1724602702+242
647LARMINACHGenevieve0:44:3322622625+363
5497COCAULTYvonne0:44:4329462615-331
2124VANNIERVictorine0:45:5922522543+291
1000LEFOUESTJoseph0:46:3637512510-1241
4490THIEBAULTM-Paule0:48:0619292431+502
15324ETIENNEBernadette0:49:0024582387-71
8954BASTIEN-FATHNicole0:51:4521942260+66
2680KIEFFERMireille0:52:4227852219-566
1001LEFOUESTM-Therese0:53:5621152168+53
2487JOLYFrancoise0:55:01N/A2126N/A
1416CHAVERNACBruno0:58:1719682007+39
14632ALLANCONClaudine0:58:2819242000+76
1437BOUSQUETHuguette1:06:5617851747-38
5804BREMAUDVeronique1:07:4421071727-380
15894LUDEWIG-JAMESCarol1:10:5521281649-479
725LAURENTTherese1:24:1021681389-779
12354GROSJEANPierreN/A25210-2521
117PIGERGhislaineN/AN/A0N/A

  Indice de confiance du circuit (moyenne des différences entre CN et score sur la course des 3 à 10 premiers) : 219






 Retour